Location: Bear Valley Community Church - Hurst
(32.8460°N, 97.1828°W)
Time: 06:25:08
(UTC+00:00)

Cosmos 1328 Rocket - Pass Details

Date: 11 July 2022
Orbit: 600 x 627 km, 82.5° (Epoch: 14 August)

Event Time Altitude Azimuth Distance (km) Brightness Sun altitude
Rises 08:52:24 0° 334° (NNW) 2,882 7.4 -25.9°
Reaches altitude 10° 08:55:10 10° 316° (NW) 1,967 6.2 -25.6°
Enters shadow 08:55:48 13° 309° (NW) 1,802 5.9 -25.5°
